Regional Weather Roundup
Issued by NWS State College, PA

Home | Current Version | Previous Version | Graphics & Text | Print | Product List | Glossary Off
Versions: 1 2 3 4 5 6 7 8 9 10 11 12 13 14 15 16 17 18 19 20 21 22 23 24 25 26 27 28 29 30 31 32 33 34 35 36 37 38 39 40 41 42 43 44 45 46 47 48 49 50

000
ASUS41 KCTP 010703
RWRCTP

REGIONAL WEATHER ROUNDUP
NATIONAL WEATHER SERVICE STATE COLLEGE PA
300 AM EDT MON SEP 01 2014

Note: "fair" indicates few or no clouds below 12,000 feet with no
significant weather and/or obstructions to visibility.

* = STATION THAT DOES NOT REPORT PRECIPITATION /E.G. RAIN...SNOW...ETC/
    THUNDER OR FOG.

PAZ002>004-007>009-013>016-020>023-029>032-010800-
WESTERN PENNSYLVANIA

CITY           SKY/WX    TMP DP  RH WIND       PRES   REMARKS
ERIE           CLEAR     71  67  87 S6        29.98S
MEADVILLE      CLOUDY    70  68  93 SW5       30.03S FOG
FRANKLIN*      CLOUDY    70  66  88 S5        30.04S
NEW CASTLE     CLOUDY    71  70  97 CALM      30.03S
BEAVER COUNTY  NOT AVBL
BUTLER*        CLOUDY    70  66  88 SW3       30.05S
PITTSBURGH INT CLOUDY    70  68  93 SW6       30.03S
PITTSBURGH     CLOUDY    70  67  90 S6        30.03S
INDIANA*       CLOUDY    70  70 100 SW5       30.09S
LATROBE        CLOUDY    72  72 100 CALM      30.05S
WASHINGTON CO* MOCLDY    66  66 100 CALM      30.04S
$$

PAZ004>006-010>012-017>019-024>028-033>037-041-042-045-046-049>053-010800-
CENTRAL PENNSYLVANIA

CITY           SKY/WX    TMP DP  RH WIND       PRES   REMARKS
BRADFORD       CLOUDY    68  66  93 VRB3      30.05F
DUBOIS         CLOUDY    69  68  96 W8        30.04S FOG
CLEARFIELD     LGT RAIN  69  69 100 S3        30.04F VSB 1
JOHNSTOWN      CLOUDY    67  65  93 SW3       30.08F
ALTOONA        MOCLDY    69  67  93 S3        30.06S
STATE COLLEGE  CLOUDY    69  67  95 CALM      30.03S
WILLIAMSPORT   FOG       68  66  93 CALM      30.00S VSB 3/4
SELINSGROVE    CLOUDY    68  67  96 CALM      30.01S FOG
FT INDIANTOWN  CLOUDY    69  69 100 CALM      30.02S
CAPITAL CITY   CLOUDY    70  69  97 CALM      30.01S
HARRISBURG     CLOUDY    73  70  90 CALM      30.00S
YORK           CLOUDY    70  69  97 CALM      30.02S
$$

PAZ038>040-043-044-047-048-054-055-060>062-067>071-010800-
EASTERN PENNSYLVANIA

CITY           SKY/WX    TMP DP  RH WIND       PRES   REMARKS
SCRANTON       CLOUDY    69  67  93 CALM      30.02S
MOUNT POCONO   MOCLDY    67  65  93 CALM      30.06F
ALLENTOWN      MOCLDY    72  70  93 CALM      30.01S FOG
QUAKERTOWN*    PTSUNNY   72  72 100 CALM      30.02F
READING        MOCLDY    74  71  91 CALM      30.00F
LANCASTER      CLOUDY    72  70  93 CALM      30.02R FOG
COATESVILLE    CLOUDY    72  72 100 CALM      30.03S FOG
POTTSTOWN      MOCLDY    71  70  96 CALM      30.02F
BLUE BELL      MOCLDY    72  72 100 CALM      30.00F
DOYLESTOWN     MOCLDY    71  71 100 CALM      30.00F
WILLOW GROVE   NOT AVBL
NORTH PHILA    CLOUDY    75  71  87 S3        30.01F
PHILADELPHIA   CLOUDY    74  72  93 S7        30.01S
$$



USA.gov is the U.S. government's official web portal to all federal, state and local government web resources and services.